Volver al catálogo

COSMOS 1823 DEB

LostLEO
NORAD 39831·DEBRIS·🇷🇺 Russia

Lanzado Feb 20, 1987 desde Plesetsk Cosmodrome

Loading…

Próximos Pases (próximas 24 horas)

TLE

ObsoletoSource: Space-Track

Época: Jun 30, 2026, 04:04 UTC

1 39831U 87020FF  26181.16992194  .00000052  00000-0  50101-3 0  9997
2 39831  73.6009 349.7505 0026806 188.0940 289.8912 12.43031779299158

Sigue COSMOS 1823 DEB en tiempo real con AllMySat

Download on the App Store